,,Stat6,,Stat2,,Stat8,,Stat9,,Stat10,,Wind1,,Wind1,
time,status,PA1M_AVG,status,PR1M_SUM,status,RH1M_AVG,status,SR1M_AVG,status,TA1M_AVG,status,W1dAve1m,status,W1sAve1m,
2008-06-17, 00:00:01,VALID,917.438,VALID,0,VALID,100,VALID,0.0339617,VALID,18.9,VALID,142,VALID,0.855945,
2008-06-17, 00:01:01,VALID,917.41,VALID,0,VALID,100,VALID,0.101885,VALID,18.8511,VALID,163,VALID,0.661156,
2008-06-17, 00:02:00,VALID,917.406,VALID,0,VALID,100,VALID,0.0509425,VALID,18.8025,VALID,147,VALID,1.21532,
2008-06-17, 00:03:00,VALID,917.375,VALID,0,VALID,100,VALID,0.0679233,VALID,18.7379,VALID,144,VALID,0.99907,
2008-06-17, 00:04:00,VALID,917.34,VALID,0,VALID,100,VALID,0.0509425,VALID,18.686,VALID,136,VALID,0.714258,
2008-06-17, 00:05:01,VALID,917.318,VALID,0,VALID,100,VALID,0.0169808,VALID,18.654,VALID,148,VALID,0.958984,
2008-06-17, 00:06:01,VALID,917.289,VALID,0,VALID,100,VALID,0.0509425,VALID,18.6343,VALID,151,VALID,1.23005,
2008-06-17, 00:07:01,VALID,917.256,VALID,0,VALID,100,VALID,0.0849042,VALID,18.6371,VALID,152,VALID,0.979789,
2008-06-17, 00:08:01,VALID,917.248,VALID,0,VALID,100,VALID,0.0339617,VALID,18.6612,VALID,148,VALID,1.15341,
2008-06-17, 00:09:01,VALID,917.245,VALID,0,VALID,100,VALID,-0.101885,VALID,18.6951,VALID,137,VALID,1.13624,
2008-06-17, 00:10:01,VALID,917.234,VALID,0,VALID,100,VALID,-0.0679233,VALID,18.7303,VALID,132,VALID,1.10528,
2008-06-17, 00:11:01,VALID,917.23,VALID,0,VALID,100,VALID,-0.0169808,VALID,18.8114,VALID,128,VALID,1.14806,
2008-06-17, 00:12:01,VALID,917.21,VALID,0,VALID,100,VALID,-0.0509425,VALID,18.8436,VALID,134,VALID,1.19912,
2008-06-17, 00:13:01,VALID,917.198,VALID,0,VALID,100,VALID,-0.0509425,VALID,18.8762,VALID,134,VALID,0.995206,
2008-06-17, 00:14:01,VALID,917.168,VALID,0,VALID,100,VALID,-0.0509425,VALID,18.9212,VALID,142,VALID,0.977083,
2008-06-17, 00:15:01,VALID,917.145,VALID,0,VALID,100,VALID,-0.101885,VALID,18.9286,VALID,136,VALID,0.939174,
2008-06-17, 00:16:01,VALID,917.127,VALID,0,VALID,100,VALID,-0.0849042,VALID,18.9381,VALID,137,VALID,0.740327,
2008-06-17, 00:17:01,VALID,917.119,VALID,0,VALID,100,VALID,-0.0509425,VALID,18.9511,VALID,133,VALID,0.971058,
2008-06-17, 00:18:00,VALID,917.105,VALID,0,VALID,100,VALID,-0.0849042,VALID,18.9543,VALID,132,VALID,1.06993,
2008-06-17, 00:19:00,VALID,917.094,VALID,0,VALID,100,VALID,-0.0849042,VALID,18.9641,VALID,127,VALID,1.13351,
2008-06-17, 00:20:00,VALID,917.096,VALID,0,VALID,100,VALID,-0.0849042,VALID,18.9738,VALID,133,VALID,1.53218,
2008-06-17, 00:21:00,VALID,917.075,VALID,0,VALID,100,VALID,-0.0679233,VALID,19.0095,VALID,133,VALID,1.3551,
2008-06-17, 00:22:00,VALID,917.047,VALID,0,VALID,100,VALID,-0.0849042,VALID,19.0357,VALID,126,VALID,1.51181,
2008-06-17, 00:23:00,VALID,917.029,VALID,0,VALID,100,VALID,-0.0339617,VALID,19.038,VALID,120,VALID,1.3386,
2008-06-17, 00:24:00,VALID,917.003,VALID,0,VALID,100,VALID,-0.0339617,VALID,19.0405,VALID,133,VALID,1.52202,
2008-06-17, 00:25:00,VALID,916.98,VALID,0,VALID,100,VALID,0,VALID,19.0567,VALID,132,VALID,1.35501,
2008-06-17, 00:26:00,VALID,916.961,VALID,0,VALID,100,VALID,0,VALID,19.0732,VALID,124,VALID,1.15503,
2008-06-17, 00:27:00,VALID,916.949,VALID,0,VALID,100,VALID,0.0169808,VALID,19.0861,VALID,121,VALID,1.28216,
2008-06-17, 00:28:00,VALID,916.945,VALID,0,VALID,100,VALID,0.0339617,VALID,19.0794,VALID,130,VALID,1.31934,
2008-06-17, 00:29:00,VALID,916.939,VALID,0,VALID,100,VALID,0.0169808,VALID,19.0919,VALID,138,VALID,1.28063,
2008-06-17, 00:30:00,VALID,916.925,VALID,0,VALID,100,VALID,0.0339617,VALID,19.1213,VALID,132,VALID,1.37984,
2008-06-17, 00:31:00,VALID,916.93,VALID,0,VALID,100,VALID,0.0169808,VALID,19.1505,VALID,127,VALID,1.09339,
2008-06-17, 00:32:00,VALID,916.908,VALID,0,VALID,100,VALID,0,VALID,19.1473,VALID,131,VALID,1.03239,
2008-06-17, 00:33:00,VALID,916.9,VALID,0,VALID,100,VALID,0.0169808,VALID,19.154,VALID,142,VALID,1.22604,
2008-06-17, 00:34:00,VALID,916.89,VALID,0,VALID,100,VALID,0,VALID,19.1672,VALID,139,VALID,1.07758,
2008-06-17, 00:35:00,VALID,916.89,VALID,0,VALID,100,VALID,0,VALID,19.177,VALID,139,VALID,1.0347,
2008-06-17, 00:36:00,VALID,916.874,VALID,0,VALID,100,VALID,0,VALID,19.1705,VALID,143,VALID,0.910065,
2008-06-17, 00:37:00,VALID,916.886,VALID,0,VALID,100,VALID,0,VALID,19.1668,VALID,144,VALID,1.12173,
2008-06-17, 00:38:00,VALID,916.896,VALID,0,VALID,100,VALID,0.0169808,VALID,19.1575,VALID,145,VALID,1.07049,
2008-06-17, 00:39:00,VALID,916.903,VALID,0,VALID,100,VALID,0,VALID,19.1802,VALID,146,VALID,1.23984,
2008-06-17, 00:40:00,VALID,916.881,VALID,0,VALID,100,VALID,0,VALID,19.151,VALID,122,VALID,0.351563,
2008-06-17, 00:41:00,VALID,916.87,VALID,0,VALID,100,VALID,-0.0169808,VALID,19.1508,VALID,143,VALID,0.960582,
2008-06-17, 00:42:00,VALID,916.848,VALID,0,VALID,100,VALID,-0.0169808,VALID,19.164,VALID,141,VALID,0.732143,
2008-06-17, 00:43:00,VALID,916.839,VALID,0,VALID,100,VALID,-0.0169808,VALID,19.157,VALID,148,VALID,1.10236,
2008-06-17, 00:44:00,VALID,916.821,VALID,0,VALID,100,VALID,-0.0169808,VALID,19.17,VALID,143,VALID,1.08101,
2008-06-17, 00:45:00,VALID,916.798,VALID,0,VALID,100,VALID,0,VALID,19.177,VALID,165,VALID,1.7153,
2008-06-17, 00:46:00,VALID,916.764,VALID,0,VALID,100,VALID,0,VALID,19.1895,VALID,151,VALID,1.48547,
2008-06-17, 00:47:00,VALID,916.75,VALID,0,VALID,100,VALID,-0.0169808,VALID,19.1964,VALID,158,VALID,1.27961,
2008-06-17, 00:48:00,VALID,916.734,VALID,0,VALID,100,VALID,-0.0169808,VALID,19.1959,VALID,153,VALID,1.80398,
2008-06-17, 00:49:00,VALID,916.702,VALID,0,VALID,100,VALID,0.0169808,VALID,19.2194,VALID,152,VALID,1.76758,
2008-06-17, 00:50:00,VALID,916.669,VALID,0,VALID,100,VALID,0,VALID,19.2354,VALID,158,VALID,1.27042,
2008-06-17, 00:51:00,VALID,916.649,VALID,0,VALID,100,VALID,0,VALID,19.2483,VALID,149,VALID,2.40402,
2008-06-17, 00:52:00,VALID,916.629,VALID,0,VALID,100,VALID,0,VALID,19.2773,VALID,148,VALID,1.95636,
2008-06-17, 00:53:00,VALID,916.602,VALID,0,VALID,100,VALID,-0.0169808,VALID,19.32,VALID,148,VALID,1.32191,
2008-06-17, 00:54:00,VALID,916.602,VALID,0,VALID,100,VALID,-0.0169808,VALID,19.3362,VALID,128,VALID,1.35747,
2008-06-17, 00:55:00,VALID,916.603,VALID,0,VALID,100,VALID,-0.0169808,VALID,19.3524,VALID,153,VALID,1.22571,
2008-06-17, 00:56:00,VALID,916.595,VALID,0,VALID,100,VALID,0.0339617,VALID,19.3619,VALID,150,VALID,2.03161,
2008-06-17, 00:57:00,VALID,916.599,VALID,0,VALID,100,VALID,0,VALID,19.3843,VALID,156,VALID,1.86289,
2008-06-17, 00:58:00,VALID,916.593,VALID,0,VALID,100,VALID,0,VALID,19.4006,VALID,158,VALID,1.76853,
2008-06-17, 00:59:00,VALID,916.592,VALID,0,VALID,100,VALID,0,VALID,19.4203,VALID,148,VALID,2.07508,
2008-06-17, 01:00:00,VALID,916.601,VALID,0,VALID,100,VALID,0,VALID,19.4233,VALID,163,VALID,1.43805,
2008-06-17, 01:01:00,VALID,916.588,VALID,0,VALID,100,VALID,0,VALID,19.4265,VALID,159,VALID,1.26036,
2008-06-17, 01:02:00,VALID,916.578,VALID,0,VALID,100,VALID,0,VALID,19.4365,VALID,165,VALID,1.7202,
2008-06-17, 01:03:00,VALID,916.585,VALID,0,VALID,100,VALID,-0.0169808,VALID,19.4397,VALID,156,VALID,1.65067,
2008-06-17, 01:04:00,VALID,916.584,VALID,0,VALID,100,VALID,0.0169808,VALID,19.4435,VALID,156,VALID,1.61644,
2008-06-17, 01:05:00,VALID,916.583,VALID,0,VALID,100,VALID,-0.0169808,VALID,19.4335,VALID,158,VALID,1.72798,
2008-06-17, 01:06:00,VALID,916.59,VALID,0,VALID,100,VALID,0.0169808,VALID,19.43,VALID,165,VALID,1.31486,
2008-06-17, 01:07:00,VALID,916.589,VALID,0,VALID,100,VALID,0.0169808,VALID,19.4233,VALID,166,VALID,1.37872,
2008-06-17, 01:08:00,VALID,916.576,VALID,0,VALID,100,VALID,-0.0169808,VALID,19.414,VALID,172,VALID,1.0218,
2008-06-17, 01:09:00,VALID,916.575,VALID,0,VALID,100,VALID,-0.0679233,VALID,19.4016,VALID,163,VALID,0.885671,
2008-06-17, 01:10:00,VALID,916.572,VALID,0,VALID,100,VALID,-0.0849042,VALID,19.4048,VALID,188,VALID,0.96439,
2008-06-17, 01:11:00,VALID,916.556,VALID,0,VALID,100,VALID,-0.0509425,VALID,19.3886,VALID,166,VALID,0.632813,
2008-06-17, 01:12:00,VALID,916.553,VALID,0,VALID,100,VALID,-0.0679233,VALID,19.3823,VALID,169,VALID,0.880269,
2008-06-17, 01:13:00,VALID,916.55,VALID,0,VALID,100,VALID,-0.0849042,VALID,19.3631,VALID,141,VALID,1.26804,
2008-06-17, 01:14:00,VALID,916.542,VALID,0,VALID,100,VALID,-0.0339617,VALID,19.3689,VALID,155,VALID,1.50763,
2008-06-17, 01:15:00,VALID,916.528,VALID,0,VALID,100,VALID,-0.0509425,VALID,19.3821,VALID,165,VALID,1.61065,
2008-06-17, 01:16:00,VALID,916.533,VALID,0,VALID,100,VALID,-0.101885,VALID,19.3958,VALID,173,VALID,0.967578,
2008-06-17, 01:17:00,VALID,916.533,VALID,0,VALID,100,VALID,-0.0849042,VALID,19.3988,VALID,176,VALID,1.29235,
2008-06-17, 01:18:00,VALID,916.522,VALID,0,VALID,100,VALID,-0.0509425,VALID,19.4018,VALID,161,VALID,1.58479,
2008-06-17, 01:19:00,VALID,916.515,VALID,0,VALID,100,VALID,-0.0509425,VALID,19.3978,VALID,160,VALID,1.50053,
2008-06-17, 01:20:00,VALID,916.537,VALID,0,VALID,100,VALID,-0.0679233,VALID,19.4148,VALID,166,VALID,1.75725,
2008-06-17, 01:21:00,VALID,916.536,VALID,0,VALID,100,VALID,-0.0679233,VALID,19.402,VALID,165,VALID,1.67454,
2008-06-17, 01:22:00,VALID,916.545,VALID,0,VALID,100,VALID,-0.0509425,VALID,19.3726,VALID,170,VALID,1.76199,
2008-06-17, 01:23:00,VALID,916.561,VALID,0,VALID,100,VALID,-0.0849042,VALID,19.3791,VALID,165,VALID,1.82908,
2008-06-17, 01:24:00,VALID,916.573,VALID,0,VALID,100,VALID,-0.0169808,VALID,19.3786,VALID,157,VALID,1.45767,
2008-06-17, 01:25:00,VALID,916.579,VALID,0,VALID,100,VALID,-0.0509425,VALID,19.3888,VALID,140,VALID,1.18477,
2008-06-17, 01:26:00,VALID,916.586,VALID,0,VALID,100,VALID,-0.0679233,VALID,19.3853,VALID,142,VALID,1.06758,
2008-06-17, 01:27:00,VALID,916.564,VALID,0,VALID,100,VALID,-0.0849042,VALID,19.3823,VALID,148,VALID,1.5202,
2008-06-17, 01:28:00,VALID,916.535,VALID,0,VALID,100,VALID,-0.0679233,VALID,19.3861,VALID,144,VALID,1.74428,
2008-06-17, 01:29:00,VALID,916.522,VALID,0,VALID,100,VALID,-0.0849042,VALID,19.3986,VALID,151,VALID,1.61254,
2008-06-17, 01:30:00,VALID,916.499,VALID,0,VALID,100,VALID,-0.0679233,VALID,19.425,VALID,142,VALID,1.5202,
2008-06-17, 01:31:00,VALID,916.464,VALID,0,VALID,100,VALID,-0.0679233,VALID,19.4407,VALID,149,VALID,1.63536,
2008-06-17, 01:32:00,VALID,916.431,VALID,0,VALID,100,VALID,-0.0509425,VALID,19.4437,VALID,157,VALID,1.494,
2008-06-17, 01:33:00,VALID,916.405,VALID,0,VALID,100,VALID,-0.0679233,VALID,19.4737,VALID,138,VALID,1.38281,
2008-06-17, 01:34:00,VALID,916.389,VALID,0,VALID,100,VALID,-0.0679233,VALID,19.4729,VALID,156,VALID,1.31962,
2008-06-17, 01:35:00,VALID,916.378,VALID,0,VALID,100,VALID,-0.0849042,VALID,19.4792,VALID,148,VALID,1.40977,
2008-06-17, 01:36:00,VALID,916.371,VALID,0,VALID,100,VALID,-0.0849042,VALID,19.4859,VALID,131,VALID,1.25905,
2008-06-17, 01:37:00,VALID,916.38,VALID,0,VALID,100,VALID,-0.0679233,VALID,19.4829,VALID,133,VALID,1.125,
2008-06-17, 01:38:00,VALID,916.371,VALID,0,VALID,100,VALID,-0.0679233,VALID,19.4986,VALID,141,VALID,2.04036,
2008-06-17, 01:39:00,VALID,916.367,VALID,0,VALID,100,VALID,-0.0509425,VALID,19.5119,VALID,147,VALID,1.59505,
2008-06-17, 01:40:00,VALID,916.357,VALID,0,VALID,100,VALID,-0.0679233,VALID,19.5223,VALID,154,VALID,1.55264,
2008-06-17, 01:41:00,VALID,916.348,VALID,0,VALID,100,VALID,-0.0509425,VALID,19.5248,VALID,156,VALID,1.41311,
2008-06-17, 01:42:00,VALID,916.329,VALID,0,VALID,100,VALID,-0.0679233,VALID,19.5416,VALID,158,VALID,1.84834,
2008-06-17, 01:43:00,VALID,916.302,VALID,0,VALID,100,VALID,-0.0849042,VALID,19.5478,VALID,178,VALID,0.779018,
2008-06-17, 01:44:00,VALID,916.266,VALID,0,VALID,100,VALID,-0.0509425,VALID,19.5376,VALID,161,VALID,1.80859,
2008-06-17, 01:45:00,VALID,916.262,VALID,0,VALID,100,VALID,-0.0849042,VALID,19.5448,VALID,150,VALID,1.54427,
2008-06-17, 01:46:00,VALID,916.225,VALID,0,VALID,100,VALID,-0.0679233,VALID,19.5376,VALID,153,VALID,1.48583,
2008-06-17, 01:47:00,VALID,916.197,VALID,0,VALID,100,VALID,-0.0679233,VALID,19.5281,VALID,154,VALID,2.02344,
2008-06-17, 01:48:00,VALID,916.183,VALID,0,VALID,100,VALID,-0.101885,VALID,19.5251,VALID,149,VALID,0.896129,
2008-06-17, 01:49:00,VALID,916.162,VALID,0,VALID,100,VALID,-0.0679233,VALID,19.5154,VALID,152,VALID,1.37882,
2008-06-17, 01:50:00,VALID,916.144,VALID,0,VALID,100,VALID,-0.0509425,VALID,19.5091,VALID,150,VALID,1.71999,
2008-06-17, 01:51:00,VALID,916.148,VALID,0,VALID,100,VALID,-0.0849042,VALID,19.5024,VALID,141,VALID,1.19709,
2008-06-17, 01:52:00,VALID,916.128,VALID,0,VALID,100,VALID,-0.0509425,VALID,19.4961,VALID,148,VALID,1.46602,
2008-06-17, 01:53:00,VALID,916.112,VALID,0,VALID,100,VALID,-0.0679233,VALID,19.4989,VALID,148,VALID,0.791243,
2008-06-17, 01:54:00,VALID,916.113,VALID,0,VALID,100,VALID,-0.0679233,VALID,19.4986,VALID,161,VALID,1.70785,
2008-06-17, 01:55:00,VALID,916.087,VALID,0,VALID,100,VALID,-0.0169808,VALID,19.4989,VALID,156,VALID,1.74521,
2008-06-17, 01:56:00,VALID,916.077,VALID,0,VALID,100,VALID,-0.0679233,VALID,19.5221,VALID,155,VALID,1.89698,
2008-06-17, 01:57:00,VALID,916.051,VALID,0,VALID,100,VALID,-0.0509425,VALID,19.5086,VALID,155,VALID,1.62639,
2008-06-17, 01:58:00,VALID,916.023,VALID,0,VALID,100,VALID,-0.0849042,VALID,19.5251,VALID,158,VALID,1.76239,
2008-06-17, 01:59:00,VALID,916.018,VALID,0,VALID,100,VALID,-0.0509425,VALID,19.5348,VALID,153,VALID,1.18023,
2008-06-17, 02:00:00,VALID,915.987,VALID,0,VALID,100,VALID,-0.0509425,VALID,19.5381,VALID,158,VALID,1.74028,
2008-06-17, 02:01:00,VALID,915.968,VALID,0,VALID,100,VALID,-0.101885,VALID,19.5513,VALID,147,VALID,1.70191,
2008-06-17, 02:02:00,VALID,915.973,VALID,0,VALID,100,VALID,-0.0849042,VALID,19.548,VALID,138,VALID,1.66239,
2008-06-17, 02:03:00,VALID,915.963,VALID,0,VALID,100,VALID,-0.101885,VALID,19.5286,VALID,152,VALID,1.90699,
2008-06-17, 02:04:00,VALID,915.947,VALID,0,VALID,100,VALID,-0.101885,VALID,19.5124,VALID,159,VALID,1.92678,
2008-06-17, 02:05:00,VALID,915.962,VALID,0,VALID,100,VALID,-0.101885,VALID,19.4996,VALID,149,VALID,1.80964,
2008-06-17, 02:06:00,VALID,915.95,VALID,0,VALID,100,VALID,-0.101885,VALID,19.4866,VALID,145,VALID,2.0625,
2008-06-17, 02:07:00,VALID,915.952,VALID,0,VALID,100,VALID,-0.101885,VALID,19.4734,VALID,145,VALID,1.38281,
2008-06-17, 02:08:00,VALID,915.939,VALID,0,VALID,100,VALID,-0.0509425,VALID,19.46,VALID,145,VALID,2.2141,
2008-06-17, 02:09:00,VALID,915.934,VALID,0,VALID,100,VALID,0.0169808,VALID,19.4263,VALID,139,VALID,1.79799,
2008-06-17, 02:10:00,VALID,915.929,VALID,0,VALID,100,VALID,0,VALID,19.4071,VALID,136,VALID,2.39807,
2008-06-17, 02:11:00,VALID,915.917,VALID,0,VALID,100,VALID,-0.0339617,VALID,19.3684,VALID,139,VALID,2.12767,
2008-06-17, 02:12:00,VALID,915.911,VALID,0,VALID,100,VALID,-0.0339617,VALID,19.3519,VALID,139,VALID,1.96646,
2008-06-17, 02:13:00,VALID,915.907,VALID,0,VALID,100,VALID,0.0169808,VALID,19.3716,VALID,145,VALID,2.32199,
2008-06-17, 02:14:00,VALID,915.884,VALID,0,VALID,100,VALID,0.0169808,VALID,19.3941,VALID,131,VALID,1.60918,
2008-06-17, 02:15:00,VALID,915.866,VALID,0,VALID,100,VALID,0,VALID,19.4135,VALID,154,VALID,1.25888,
2008-06-17, 02:16:00,VALID,915.828,VALID,0,VALID,100,VALID,-0.0169808,VALID,19.4557,VALID,154,VALID,2.39993,
2008-06-17, 02:17:00,VALID,915.8,VALID,0,VALID,100,VALID,0,VALID,19.5176,VALID,151,VALID,2.05301,
2008-06-17, 02:18:00,VALID,915.76,VALID,0,VALID,100,VALID,0,VALID,19.5663,VALID,157,VALID,2.12718,
2008-06-17, 02:19:00,VALID,915.73,VALID,0,VALID,100,VALID,-0.0509425,VALID,19.5922,VALID,133,VALID,2.0043,
2008-06-17, 02:20:00,VALID,915.724,VALID,0,VALID,100,VALID,0,VALID,19.6274,VALID,147,VALID,1.95424,
2008-06-17, 02:21:00,VALID,915.71,VALID,0,VALID,100,VALID,0,VALID,19.6561,VALID,146,VALID,2.09699,
2008-06-17, 02:22:00,VALID,915.695,VALID,0,VALID,100,VALID,0,VALID,19.6958,VALID,146,VALID,2.11163,
2008-06-17, 02:23:00,VALID,915.671,VALID,0,VALID,100,VALID,0,VALID,19.7347,VALID,143,VALID,1.67578,
2008-06-17, 02:24:00,VALID,915.658,VALID,0,VALID,99.9939,VALID,-0.0169808,VALID,19.7545,VALID,144,VALID,1.56268,
2008-06-17, 02:25:00,VALID,915.647,VALID,0,VALID,99.9807,VALID,0,VALID,19.7672,VALID,166,VALID,1.70022,
2008-06-17, 02:26:00,VALID,915.648,VALID,0,VALID,99.8375,VALID,0,VALID,19.8029,VALID,140,VALID,1.82158,
2008-06-17, 02:27:00,VALID,915.637,VALID,0,VALID,99.6963,VALID,0,VALID,19.8159,VALID,142,VALID,1.99751,
2008-06-17, 02:28:00,VALID,915.645,VALID,0,VALID,99.559,VALID,-0.0169808,VALID,19.8226,VALID,144,VALID,1.7847,
2008-06-17, 02:29:00,VALID,915.65,VALID,0,VALID,99.5196,VALID,-0.0169808,VALID,19.8258,VALID,135,VALID,1.51734,
2008-06-17, 02:30:00,VALID,915.64,VALID,0,VALID,99.5107,VALID,0.0169808,VALID,19.8386,VALID,148,VALID,2.01835,
2008-06-17, 02:31:00,VALID,915.636,VALID,0,VALID,99.4662,VALID,0.0169808,VALID,19.8513,VALID,154,VALID,1.5952,
2008-06-17, 02:32:00,VALID,915.616,VALID,0,VALID,99.3848,VALID,0.0169808,VALID,19.8808,VALID,157,VALID,2.32165,
2008-06-17, 02:33:00,VALID,915.607,VALID,0,VALID,99.2615,VALID,0,VALID,19.9067,VALID,151,VALID,1.71005,
2008-06-17, 02:34:00,VALID,915.593,VALID,0,VALID,99.1724,VALID,-0.0169808,VALID,19.9232,VALID,149,VALID,2.06922,
2008-06-17, 02:35:00,VALID,915.59,VALID,0,VALID,99.0593,VALID,-0.0169808,VALID,19.9392,VALID,144,VALID,1.75186,
2008-06-17, 02:36:00,VALID,915.565,VALID,0,VALID,99.0059,VALID,0.0169808,VALID,19.9359,VALID,150,VALID,1.90607,
2008-06-17, 02:37:00,VALID,915.538,VALID,0,VALID,98.9512,VALID,0,VALID,19.9294,VALID,149,VALID,1.75089,
2008-06-17, 02:38:00,VALID,915.517,VALID,0,VALID,98.9842,VALID,0.0169808,VALID,19.9229,VALID,155,VALID,1.92401,
2008-06-17, 02:39:00,VALID,915.5,VALID,0,VALID,99.0084,VALID,0,VALID,19.9032,VALID,149,VALID,1.75457,
2008-06-17, 02:40:00,VALID,915.479,VALID,0,VALID,99.0872,VALID,0.0169808,VALID,19.8902,VALID,140,VALID,2.01228,
2008-06-17, 02:41:00,VALID,915.467,VALID,0,VALID,99.1559,VALID,0.0169808,VALID,19.8808,VALID,150,VALID,1.8695,
2008-06-17, 02:42:00,VALID,915.464,VALID,0,VALID,99.2017,VALID,-0.0169808,VALID,19.8713,VALID,146,VALID,1.49714,
2008-06-17, 02:43:00,VALID,915.465,VALID,0,VALID,99.2437,VALID,-0.0339617,VALID,19.8745,VALID,134,VALID,2.28379,
2008-06-17, 02:44:00,VALID,915.468,VALID,0,VALID,99.1788,VALID,-0.0169808,VALID,19.8805,VALID,140,VALID,2.03325,
2008-06-17, 02:45:00,VALID,915.454,VALID,0,VALID,99.0656,VALID,0.0339617,VALID,19.9,VALID,125,VALID,1.71566,
2008-06-17, 02:46:00,VALID,915.463,VALID,0,VALID,98.9525,VALID,0,VALID,19.9162,VALID,126,VALID,2.02766,
2008-06-17, 02:47:00,VALID,915.449,VALID,0,VALID,98.8622,VALID,-0.0339617,VALID,19.9102,VALID,136,VALID,1.77144,
2008-06-17, 02:48:00,VALID,915.442,VALID,0,VALID,98.8901,VALID,-0.0169808,VALID,19.9135,VALID,138,VALID,1.71875,
2008-06-17, 02:49:00,VALID,915.438,VALID,0,VALID,98.899,VALID,-0.0169808,VALID,19.9067,VALID,145,VALID,1.76074,
2008-06-17, 02:50:00,VALID,915.415,VALID,0,VALID,98.8749,VALID,0,VALID,19.9362,VALID,144,VALID,2.20749,
2008-06-17, 02:51:00,VALID,915.409,VALID,0,VALID,98.7337,VALID,-0.0169808,VALID,19.9521,VALID,146,VALID,1.72674,
2008-06-17, 02:52:00,VALID,915.405,VALID,0,VALID,98.6346,VALID,-0.0169808,VALID,19.9711,VALID,151,VALID,2.11403,
2008-06-17, 02:53:00,VALID,915.382,VALID,0,VALID,98.4845,VALID,0.0169808,VALID,19.9968,VALID,153,VALID,1.86435,
2008-06-17, 02:54:00,VALID,915.383,VALID,0,VALID,98.3344,VALID,0,VALID,20.0165,VALID,144,VALID,1.87891,
2008-06-17, 02:55:00,VALID,915.359,VALID,0,VALID,98.1971,VALID,-0.0169808,VALID,20.03,VALID,148,VALID,2.02778,
2008-06-17, 02:56:00,VALID,915.336,VALID,0,VALID,98.1526,VALID,0.0169808,VALID,20.0303,VALID,158,VALID,1.84931,
2008-06-17, 02:57:00,VALID,915.336,VALID,0,VALID,98.2035,VALID,-0.0169808,VALID,20.0235,VALID,157,VALID,2.70573,
2008-06-17, 02:58:00,VALID,915.328,VALID,0,VALID,98.1285,VALID,0.0169808,VALID,20.0557,VALID,145,VALID,2.09528,
2008-06-17, 02:59:00,VALID,915.306,VALID,0,VALID,97.883,VALID,0,VALID,20.0917,VALID,159,VALID,2.06143,
2008-06-17, 03:00:00,VALID,915.295,VALID,0,VALID,97.588,VALID,0,VALID,20.1341,VALID,146,VALID,2.3625,
2008-06-17, 03:01:00,VALID,915.27,VALID,0,VALID,97.4278,VALID,-0.0169808,VALID,20.1533,VALID,151,VALID,1.66596,
2008-06-17, 03:02:00,VALID,915.251,VALID,0,VALID,97.2841,VALID,-0.0169808,VALID,20.1628,VALID,146,VALID,2.51296,
2008-06-17, 03:03:00,VALID,915.253,VALID,0,VALID,97.1048,VALID,0,VALID,20.2055,VALID,163,VALID,2.05879,
2008-06-17, 03:04:00,VALID,915.259,VALID,0,VALID,96.8645,VALID,0,VALID,20.2247,VALID,151,VALID,2.48605,
2008-06-17, 03:05:00,VALID,915.291,VALID,0,VALID,96.6826,VALID,-0.0169808,VALID,20.2374,VALID,140,VALID,2.18687,
2008-06-17, 03:06:00,VALID,915.283,VALID,0,VALID,96.5669,VALID,0,VALID,20.2474,VALID,150,VALID,2.18786,
2008-06-17, 03:07:00,VALID,915.292,VALID,0,VALID,96.5262,VALID,0,VALID,20.2831,VALID,137,VALID,2.2873,
2008-06-17, 03:08:00,VALID,915.326,VALID,0,VALID,96.3126,VALID,-0.0849042,VALID,20.3061,VALID,140,VALID,2.38491,
2008-06-17, 03:09:00,VALID,915.33,VALID,0,VALID,96.2325,VALID,-0.0339617,VALID,20.3188,VALID,140,VALID,1.97154,
2008-06-17, 03:10:00,VALID,915.34,VALID,0,VALID,96.221,VALID,0,VALID,20.3153,VALID,142,VALID,1.78477,
2008-06-17, 03:11:00,VALID,915.338,VALID,0,VALID,96.2427,VALID,-0.0169808,VALID,20.3023,VALID,139,VALID,1.81668,
2008-06-17, 03:12:00,VALID,915.316,VALID,0,VALID,96.2808,VALID,0.0339617,VALID,20.2923,VALID,144,VALID,2.31086,
2008-06-17, 03:13:00,VALID,915.304,VALID,0,VALID,96.3113,VALID,0.0169808,VALID,20.2888,VALID,140,VALID,2.57393,
2008-06-17, 03:14:00,VALID,915.297,VALID,0,VALID,96.2338,VALID,0,VALID,20.3153,VALID,143,VALID,2.18296,
2008-06-17, 03:15:00,VALID,915.301,VALID,0,VALID,96.099,VALID,0,VALID,20.3385,VALID,150,VALID,2.49891,
2008-06-17, 03:16:00,VALID,915.291,VALID,0,VALID,95.9934,VALID,0.0169808,VALID,20.3443,VALID,135,VALID,2.6584,
2008-06-17, 03:17:00,VALID,915.312,VALID,0,VALID,95.8866,VALID,0,VALID,20.364,VALID,117,VALID,2.59914,
2008-06-17, 03:18:00,VALID,915.32,VALID,0,VALID,95.9578,VALID,0.0169808,VALID,20.3345,VALID,131,VALID,2.2467,
2008-06-17, 03:19:00,VALID,915.325,VALID,0,VALID,96.0913,VALID,0.0339617,VALID,20.2956,VALID,126,VALID,2.27992,
2008-06-17, 03:20:00,VALID,915.328,VALID,0,VALID,96.2427,VALID,0.0169808,VALID,20.2639,VALID,128,VALID,2.1092,
2008-06-17, 03:21:00,VALID,915.323,VALID,0,VALID,96.3902,VALID,0,VALID,20.2347,VALID,126,VALID,1.91513,
2008-06-17, 03:22:00,VALID,915.326,VALID,0,VALID,96.5542,VALID,-0.0339617,VALID,20.2087,VALID,124,VALID,1.92351,
2008-06-17, 03:23:00,VALID,915.319,VALID,0,VALID,96.4983,VALID,0,VALID,20.2277,VALID,121,VALID,1.47216,
2008-06-17, 03:24:00,VALID,915.335,VALID,0,VALID,96.4067,VALID,0.0169808,VALID,20.2474,VALID,127,VALID,1.61395,
2008-06-17, 03:25:00,VALID,915.327,VALID,0,VALID,96.4067,VALID,-0.0169808,VALID,20.2569,VALID,128,VALID,2,
2008-06-17, 03:26:00,VALID,915.318,VALID,0,VALID,96.3431,VALID,0.0339617,VALID,20.2569,VALID,128,VALID,2.05859,
2008-06-17, 03:27:00,VALID,915.306,VALID,0,VALID,96.3075,VALID,0.0169808,VALID,20.2626,VALID,132,VALID,2.14896,
2008-06-17, 03:28:00,VALID,915.29,VALID,0,VALID,96.2872,VALID,0.0169808,VALID,20.2796,VALID,137,VALID,2.19959,
2008-06-17, 03:29:00,VALID,915.287,VALID,0,VALID,96.1702,VALID,0,VALID,20.3026,VALID,133,VALID,1.57552,
2008-06-17, 03:30:00,VALID,915.263,VALID,0,VALID,96.0227,VALID,0,VALID,20.3248,VALID,131,VALID,2.50093,
2008-06-17, 03:31:00,VALID,915.262,VALID,0,VALID,95.5484,VALID,-0.0169808,VALID,20.4192,VALID,129,VALID,2.55195,
2008-06-17, 03:32:00,VALID,915.246,VALID,0,VALID,94.9088,VALID,-0.0169808,VALID,20.5392,VALID,111,VALID,1.61986,
2008-06-17, 03:33:00,VALID,915.234,VALID,0,VALID,94.3696,VALID,0.0169808,VALID,20.6301,VALID,148,VALID,1.95722,
2008-06-17, 03:34:00,VALID,915.223,VALID,0,VALID,93.8902,VALID,0.0169808,VALID,20.7083,VALID,160,VALID,1.54397,
2008-06-17, 03:35:00,VALID,915.197,VALID,0,VALID,93.5087,VALID,0,VALID,20.7502,VALID,144,VALID,2.00223,
2008-06-17, 03:36:00,VALID,915.194,VALID,0,VALID,93.2582,VALID,0,VALID,20.8124,VALID,150,VALID,1.43136,
2008-06-17, 03:37:00,VALID,915.176,VALID,0,VALID,92.9708,VALID,-0.0169808,VALID,20.8286,VALID,152,VALID,2.09687,
2008-06-17, 03:38:00,VALID,915.153,VALID,0,VALID,92.8081,VALID,0,VALID,20.8481,VALID,166,VALID,2.35245,